RH
13 14 16 16 15 15 16 18 20 22 27 37 41 39 38 39 40 39 38 36 32 31 29 28 29 29 31 35 42 47 48 46 48 52 58 61 54 48 51 54 54 63 73 70 67 70 70 68 69 72 73 78 82 83 84 87 87 82 78 77 75 75 77 78 77 75 73 71 68 66 62 58 55 53 52 51 45 36 31 28 26 27 31 36 36
14 13 15 16 15 15 16 17 20 23 27 33 39 40 39 40 41 38 37 35 32 31 29 27 29 29 29 31 37 44 47 46 46 49 54 60 60 53 50 53 53 51 58 65 63 60 62 63 64 68 69 71 73 74 75 77 76 73 73 73 71 71 72 72 72 70 65 62 61 61 61 61 59 56 54 50 43 33 27 25 27 34 37 36 34
18 14 14 14 15 15 16 17 19 23 28 33 39 41 39 40 41 39 37 35 31 31 29 28 28 26 25 28 34 41 45 46 45 46 50 55 59 58 51 51 55 51 49 57 65 63 58 57 59 63 65 65 64 65 71 76 75 75 76 73 70 68 66 66 66 64 60 59 62 66 65 63 62 59 54 50 47 39 29 28 33 37 37 36 38
24 19 15 14 15 15 16 17 19 22 28 34 40 41 39 39 40 39 38 35 31 31 30 29 27 22 21 25 30 36 42 45 44 44 47 51 55 57 54 49 51 55 50 48 58 67 67 64 62 63 66 68 67 68 75 81 78 74 73 71 70 69 66 66 68 68 67 66 66 67 65 61 60 58 54 51 52 45 34 34 38 36 37 42 44
26 23 19 15 15 15 15 17 19 22 28 35 40 42 40 38 37 40 40 35 31 31 30 29 27 21 20 24 26 30 37 42 41 40 43 47 49 52 54 50 48 51 51 46 48 57 67 70 70 71 74 76 77 78 82 85 81 76 72 69 68 69 70 71 71 71 72 69 65 62 60 57 53 52 51 51 53 47 37 38 44 44 44 46 48
20 22 19 16 15 15 16 17 19 23 29 34 39 42 41 37 36 39 40 36 32 31 29 30 28 23 19 21 24 27 32 37 37 36 39 43 45 47 50 52 51 50 50 48 46 49 58 68 72 74 77 79 79 80 83 84 83 81 76 71 69 71 74 75 73 71 69 66 61 57 55 53 50 49 50 49 50 47 42 44 51 55 52 48 48
17 17 17 16 15 15 16 17 20 25 30 33 36 39 40 37 35 38 39 37 33 31 30 29 29 25 20 19 22 26 29 34 35 32 33 36 39 43 46 49 53 55 54 53 51 47 49 58 68 73 76 77 78 79 81 84 85 83 79 76 74 73 73 71 68 66 63 58 54 51 50 49 48 49 50 50 48 45 43 47 54 61 59 51 48
19 16 15 16 16 16 16 19 22 26 31 33 33 34 34 34 35 38 39 38 35 32 31 31 29 26 22 19 20 23 27 32 34 31 30 30 32 36 41 44 48 54 57 59 59 55 48 47 52 61 68 72 73 75 78 80 80 77 76 76 74 71 67 64 61 58 54 51 48 47 46 45 46 48 48 49 46 41 39 45 56 64 63 52 48
21 17 17 18 19 18 18 20 22 25 31 34 33 30 28 30 33 34 36 38 37 34 31 31 31 27 23 21 20 21 25 29 33 32 31 30 29 30 33 36 39 45 51 57 60 62 61 55 51 53 59 65 67 67 68 70 70 68 65 63 61 58 54 50 48 47 46 46 43 41 43 46 48 49 48 47 45 40 38 42 50 56 56 50 50
25 21 20 19 20 21 20 21 22 25 31 34 34 30 27 27 31 32 32 35 36 35 33 32 32 29 25 22 21 21 23 26 29 31 31 32 31 31 30 31 32 36 41 46 52 59 64 65 62 58 56 59 63 63 60 57 55 54 51 47 41 36 32 29 28 28 30 32 30 28 34 43 47 48 49 50 46 41 41 43 44 47 48 47 52
24 23 23 23 23 23 21 20 21 25 31 34 33 30 27 27 31 32 32 31 31 32 33 33 33 30 26 24 21 21 22 23 25 27 28 30 32 32 32 32 32 34 35 37 42 49 57 63 66 64 61 59 62 67 68 62 52 43 39 36 31 25 22 20 21 19 19 20 19 20 24 32 39 44 48 51 45 41 45 47 45 47 46 47 55
24 25 26 25 25 25 22 20 21 25 30 32 30 28 27 29 32 34 33 30 27 26 28 32 34 31 28 25 23 21 22 22 23 23 23 25 28 31 31 32 32 33 34 34 35 39 46 54 60 63 65 64 64 67 71 72 69 58 47 40 35 31 29 26 23 21 19 18 18 18 19 23 32 39 44 47 42 38 45 50 50 50 48 49 58
26 26 25 23 23 24 22 20 21 25 29 30 28 25 25 28 33 37 36 31 27 25 24 26 30 30 28 27 24 22 22 21 21 22 20 21 24 27 28 30 32 31 31 33 32 33 37 42 48 53 55 57 58 60 62 67 72 71 67 59 49 43 40 34 30 26 23 23 24 24 20 17 20 28 32 36 35 34 43 52 53 52 50 52 60
26 26 25 24 24 24 21 20 23 27 29 29 26 22 21 25 31 36 38 32 28 27 26 26 26 27 28 29 26 23 22 22 20 20 20 19 21 23 24 26 29 31 30 30 30 30 31 31 34 38 42 43 46 49 53 57 60 62 68 68 63 58 50 38 32 31 28 26 27 29 26 17 12 16 22 28 30 31 40 50 52 53 51 51 60
26 26 25 25 26 24 21 21 25 29 30 29 25 21 20 25 30 34 37 35 31 29 29 28 27 26 27 28 28 25 23 22 21 20 20 18 19 23 23 22 24 27 30 30 29 29 29 28 27 30 36 39 39 41 45 49 51 53 56 55 56 63 64 51 39 33 30 28 27 28 28 22 15 14 15 21 26 27 33 42 46 50 52 52 58
25 25 25 27 28 25 22 24 28 31 31 28 25 21 21 25 30 33 35 36 33 30 29 29 28 27 26 27 28 26 25 23 22 21 20 18 17 21 25 23 22 22 25 28 31 31 30 29 29 29 33 35 34 35 39 42 44 46 44 39 38 47 58 62 55 44 35 31 28 28 29 26 23 19 14 15 20 23 30 38 42 48 52 52 57
23 24 28 29 28 27 24 25 30 32 30 26 24 22 23 26 30 32 34 34 34 31 30 28 27 26 25 25 27 27 25 24 23 22 21 18 16 17 22 24 23 21 21 23 26 30 31 32 32 31 32 32 31 32 34 34 35 34 31 31 33 34 38 50 60 58 48 37 30 28 29 28 28 25 19 15 17 23 33 42 44 46 47 48 54
23 25 28 28 29 29 28 28 32 32 28 24 23 23 25 28 31 33 34 34 33 32 30 29 27 26 24 24 26 26 25 24 23 22 23 21 17 16 18 21 23 22 20 20 21 24 27 30 32 33 32 32 31 30 29 28 28 27 25 29 34 32 29 37 50 59 58 51 41 32 28 28 28 28 27 23 23 29 39 46 45 43 45 49 55
25 26 29 30 30 30 29 30 32 30 26 23 22 22 24 26 29 32 35 35 34 33 31 28 27 26 25 24 25 26 26 25 23 22 23 23 21 18 17 18 20 21 20 20 20 21 23 27 30 33 35 35 34 32 30 28 26 27 29 31 31 30 32 35 41 47 52 56 54 46 35 30 29 29 29 29 31 37 44 46 41 39 45 51 54
26 27 28 28 26 26 27 30 32 29 24 21 22 23 23 22 23 26 29 31 32 33 32 29 27 25 24 23 23 25 25 25 23 22 22 23 22 21 20 19 20 21 21 21 20 21 22 23 26 29 33 36 37 37 36 32 30 30 32 32 29 29 33 38 39 39 41 47 53 55 49 41 36 33 30 32 37 41 45 46 41 37 42 48 50
25 25 25 24 25 26 28 31 31 27 22 21 23 24 24 23 21 22 25 26 28 31 33 31 28 25 23 22 22 23 25 25 24 22 22 22 22 22 21 20 21 22 22 21 22 22 22 23 24 25 27 29 32 34 35 33 32 31 31 31 31 30 32 37 39 38 38 39 42 49 51 49 45 41 35 34 39 45 46 46 43 39 41 49 53
22 24 25 25 26 28 29 31 30 25 21 21 24 25 26 27 26 25 27 28 29 31 32 32 30 26 23 21 21 21 23 24 24 22 21 21 21 21 21 21 22 22 22 23 23 23 23 23 23 23 24 25 26 28 30 32 32 31 30 32 34 33 32 34 36 37 39 39 36 40 47 49 49 47 41 34 37 44 48 48 46 43 43 49 56
23 26 27 26 28 29 30 31 29 24 21 21 25 28 30 32 31 30 32 33 32 32 32 32 31 27 24 21 20 19 20 21 22 23 22 21 20 20 20 21 22 22 23 23 24 24 24 24 24 24 24 24 25 26 27 30 32 33 33 33 34 36 34 31 33 37 40 39 34 36 43 47 49 49 44 36 36 43 48 48 47 46 44 47 53
25 27 27 27 29 30 31 30 28 24 22 23 27 32 35 34 33 32 33 35 34 33 32 33 32 29 25 22 21 20 18 18 19 21 22 21 21 20 19 20 22 23 23 23 23 24 24 24 24 25 25 24 24 24 24 26 28 30 31 29 29 32 32 29 31 36 40 39 34 34 40 46 49 51 46 40 41 46 46 45 47 48 45 45 51
26 26 27 28 30 30 30 29 28 28 27 28 32 37 39 37 34 32 34 36 36 34 33 33 32 29 26 24 23 22 20 18 18 18 21 22 23 21 20 19 20 22 22 21 20 21 22 23 23 24 25 25 25 24 23 23 23 23 24 23 23 26 28 27 31 35 39 39 35 32 36 44 50 53 48 42 41 44 44 43 46 49 48 46 50
26 27 29 29 29 30 29 28 29 30 30 31 35 38 40 38 35 32 32 35 36 36 35 35 35 32 29 26 26 24 22 21 19 18 18 20 22 22 20 18 18 19 19 19 18 18 19 21 21 22 23 23 24 24 23 22 21 21 21 21 21 23 24 26 31 36 39 39 36 31 32 40 49 53 51 45 40 39 40 39 40 45 48 48 50
27 28 30 29 29 29 28 28 30 33 33 32 33 34 34 34 32 30 28 30 32 33 33 34 36 35 32 30 29 27 25 23 22 20 19 19 20 21 20 17 16 16 16 16 17 16 17 17 19 20 21 21 22 22 22 22 22 21 22 22 22 23 24 25 30 35 38 39 38 33 29 34 46 52 52 48 42 37 36 37 37 42 47 47 47
29 30 29 29 29 29 28 30 34 34 32 30 28 28 29 30 30 29 28 28 30 31 29 29 31 33 33 32 32 32 29 25 22 22 22 21 20 20 19 17 15 14 15 15 15 15 15 15 16 17 18 19 19 20 20 20 21 22 23 23 23 23 24 25 27 33 38 39 39 37 32 31 41 50 51 48 43 36 32 34 37 41 45 47 44
31 31 29 29 30 30 30 35 36 32 29 29 28 27 29 29 29 30 31 32 32 31 30 30 29 31 33 35 36 35 31 26 22 21 23 24 22 20 19 17 14 14 14 14 13 13 13 13 14 14 15 16 16 17 18 17 17 18 20 22 23 23 24 25 26 30 38 41 40 41 38 34 37 46 51 49 45 37 32 32 37 40 42 45 43
31 30 29 30 31 30 35 39 36 30 29 30 30 29 29 29 29 31 34 36 36 34 32 31 30 31 33 36 38 36 31 26 22 21 23 25 25 23 21 18 15 13 13 12 11 11 11 11 12 12 12 13 13 14 15 15 14 15 15 18 22 23 24 26 27 29 37 43 41 42 44 41 38 42 50 52 49 43 36 32 34 39 44 47 46
30 29 30 32 30 32 39 41 34 28 29 31 31 31 31 29 30 33 35 38 38 36 34 31 30 32 34 37 38 36 31 28 26 24 24 26 27 26 24 21 17 14 13 12 11 11 10 11 11 11 10 11 11 11 12 13 12 13 12 13 17 21 23 25 26 27 34 41 41 42 47 48 43 42 48 53 52 47 43 36 32 34 39 45 49
29 29 32 32 30 34 41 40 33 29 30 30 31 33 32 31 33 34 36 38 38 37 36 34 32 33 35 37 38 36 33 32 31 29 27 28 29 29 27 24 21 17 16 14 12 12 12 11 11 11 11 11 11 11 12 12 11 11 12 11 13 16 20 23 24 25 30 36 39 42 48 51 49 46 48 52 52 50 47 43 38 35 33 36 42
28 31 33 32 31 37 41 38 32 31 31 31 32 34 34 35 35 35 36 38 39 39 39 38 37 36 36 37 37 36 35 34 34 35 33 31 31 31 30 28 25 21 19 16 14 13 13 12 12 12 11 11 11 12 12 12 12 11 11 11 11 13 15 17 17 18 23 31 37 43 47 48 50 52 51 49 51 51 49 47 44 40 36 34 32
29 33 34 32 32 37 40 37 32 31 31 32 34 35 36 36 36 36 36 38 40 41 42 42 41 40 40 38 37 36 35 35 36 38 37 34 32 31 29 30 30 27 23 20 17 16 14 13 13 13 13 12 12 12 12 12 12 12 12 11 11 11 11 11 11 12 16 23 31 40 44 44 46 52 54 51 51 53 51 49 47 43 40 37 32
30 34 35 33 33 36 39 37 34 33 32 33 34 35 36 37 37 37 36 37 38 41 44 44 43 44 43 41 39 36 35 35 36 37 36 33 30 28 26 25 28 31 30 26 22 19 17 15 14 14 14 13 13 13 13 13 12 12 12 11 11 11 10 10 10 10 11 14 19 27 36 40 42 46 51 52 54 56 56 54 52 48 42 38 33
32 35 35 36 36 37 38 39 38 37 35 35 36 36 36 36 37 37 37 37 37 40 43 45 45 46 46 45 42 39 37 37 37 36 34 32 29 28 26 24 24 28 32 33 29 24 20 18 16 16 15 15 15 14 14 14 14 13 13 12 11 11 11 10 10 10 10 10 11 14 22 30 34 36 40 45 49 52 57 59 59 57 52 43 36
32 33 34 36 37 38 39 40 40 40 39 40 41 40 37 36 36 37 39 39 38 39 43 46 46 47 48 47 46 44 41 40 41 41 38 34 31 30 28 26 25 26 30 33 35 31 26 22 19 18 17 16 16 16 16 15 15 14 13 13 12 11 11 10 10 10 10 9 9 9 11 17 21 24 28 34 35 38 46 55 59 61 61 56 46
32 31 31 33 36 40 42 42 41 42 42 43 44 44 40 37 36 40 44 44 40 38 42 46 47 48 49 50 50 49 46 44 45 46 43 39 35 33 30 28 27 27 30 33 36 36 33 28 23 21 20 19 18 17 17 17 16 15 14 14 13 12 12 11 11 11 11 10 9 9 9 11 14 14 18 24 25 24 30 40 48 52 58 62 59
35 32 30 30 34 40 44 44 43 45 45 45 47 47 43 39 40 43 47 47 43 40 42 44 47 52 54 53 51 52 52 51 51 52 50 44 39 36 32 30 29 30 33 36 38 38 37 35 30 25 23 21 20 19 19 18 17 16 15 15 14 13 12 12 11 11 11 10 10 9 9 10 11 11 12 18 21 17 16 23 32 38 43 50 58
37 33 30 29 32 39 45 47 48 50 50 49 51 50 45 42 45 47 49 48 46 44 44 45 50 59 62 56 51 52 54 54 53 53 53 49 42 37 35 33 32 32 35 39 40 39 39 39 36 31 28 25 23 21 21 20 19 18 17 15 15 14 13 12 12 11 11 11 10 10 9 10 10 9 10 14 18 15 12 14 20 25 28 33 41
37 34 33 32 32 38 45 49 51 54 55 53 54 54 50 48 49 50 49 49 49 49 49 51 59 67 65 54 48 50 53 53 51 52 52 50 44 41 40 39 36 36 38 40 41 40 39 39 39 36 33 30 28 26 24 22 21 19 18 17 16 15 14 13 12 12 11 11 10 10 10 10 10 9 9 11 12 12 10 10 12 15 16 19 25
38 36 37 39 38 39 45 49 53 57 57 55 55 57 56 52 51 51 49 49 50 52 53 57 65 72 66 53 46 47 51 55 55 52 49 48 46 45 47 46 44 42 42 42 42 41 40 38 39 38 37 36 34 32 29 26 24 22 20 18 17 16 15 14 13 12 12 11 10 10 10 10 10 10 9 9 10 9 9 9 9 9 9 11 15
42 39 41 45 44 43 47 51 56 60 60 57 57 59 58 56 56 57 55 55 56 58 58 59 65 70 67 57 49 48 51 58 60 55 49 48 49 50 51 52 51 49 46 45 44 43 40 38 37 37 37 37 35 34 31 28 26 24 22 20 19 17 16 14 14 13 12 12 11 10 10 10 11 10 10 10 9 9 9 9 8 8 7 8 11
50 46 47 50 50 49 52 56 60 62 63 63 64 67 68 67 67 67 67 68 68 67 64 63 65 68 66 59 53 50 52 58 61 58 53 52 52 52 52 53 53 52 51 48 46 44 42 40 38 36 36 35 33 31 30 28 27 26 24 22 20 19 17 16 14 13 13 13 11 10 10 11 11 11 11 10 10 10 9 9 10 9 8 8 10
57 56 58 61 61 61 62 65 68 70 71 72 74 76 77 76 75 74 75 76 73 70 69 68 67 66 63 59 53 51 54 58 61 58 54 51 51 52 52 52 51 52 52 52 49 47 46 44 42 39 38 36 34 32 30 28 27 27 26 24 23 20 18 17 15 14 13 13 12 11 11 12 12 11 11 11 10 10 10 10 10 10 9 8 9
65 65 67 70 71 71 72 74 76 77 77 78 79 80 79 77 75 73 74 74 72 70 70 71 67 63 60 58 55 54 55 56 56 53 48 45 46 48 52 54 55 56 55 54 52 50 49 49 47 44 42 40 39 36 33 30 28 27 26 25 24 22 20 18 16 15 14 14 13 12 12 12 12 12 12 12 11 11 10 11 11 11 10 8 8
71 72 73 75 76 76 76 78 80 80 79 79 79 78 76 74 73 71 73 74 72 70 70 70 66 60 56 53 50 48 45 45 45 45 44 43 43 46 51 57 61 63 60 56 52 50 50 50 50 49 48 46 44 42 38 34 32 29 28 27 26 24 23 21 18 16 15 15 14 13 13 12 12 12 12 12 12 11 11 12 14 13 11 10 9
79 79 81 81 79 76 77 79 81 81 78 77 76 75 74 73 71 70 72 73 71 69 69 66 59 52 47 43 40 38 36 37 39 41 43 43 44 45 49 56 63 66 65 60 56 53 53 55 56 55 53 52 50 47 44 41 37 33 30 29 27 26 25 24 21 18 16 15 15 14 14 13 12 12 11 11 11 11 11 13 15 15 13 11 11
83 83 81 79 76 74 73 75 78 78 76 74 73 73 74 73 70 68 69 69 68 67 65 59 50 44 39 35 34 33 32 33 35 38 40 42 44 45 48 54 60 65 66 64 61 58 58 61 63 61 56 54 54 51 48 45 43 39 34 31 29 27 26 25 23 19 17 16 16 16 15 14 12 12 12 11 11 10 11 12 14 15 13 11 11
77 75 72 71 73 75 74 74 75 75 74 72 72 73 72 70 68 67 69 69 65 61 56 52 47 42 37 33 32 32 31 32 34 37 40 43 44 45 48 51 54 58 64 67 66 63 59 60 62 61 58 55 55 53 50 48 47 45 41 37 34 31 29 28 25 21 19 18 18 17 16 15 14 13 13 13 12 11 11 11 13 14 14 12 11
64 63 64 68 74 77 75 72 69 70 70 69 68 68 67 66 66 67 67 64 59 54 51 49 47 43 38 36 36 35 35 36 38 40 42 45 45 46 50 52 53 57 63 68 66 62 56 55 59 62 61 59 57 55 53 51 50 48 46 43 40 36 34 32 29 26 23 21 20 19 17 16 16 15 14 14 14 13 12 12 12 13 13 13 12